Overview Statistics Trail Chart Weather Telemetry Raw packets
 

This is the latest recevied weather packets stored in our database for station/object K6GMW. If no packets are shown the sender has not sent any weather packets the latest 10 day(s).

<< 46 47 48 49 50 51 52 >>
Time Temp. Humidity Pressure Rain* Wind** Luminosity Snow
1788314843 31.11° C 59% 1015.5 hPa 0 mm - 0 W/m² -
1788314539 31.11° C 58% 1015.5 hPa 0 mm - 0 W/m² -
1788314234 31.67° C 57% 1015.5 hPa 0 mm - 0 W/m² -
1788313930 31.67° C 56% 1015.6 hPa 0 mm - 0 W/m² -
1788313626 31.67° C 55% 1015.4 hPa 0 mm - 0 W/m² -
1788313322 31.67° C 53% 1015.2 hPa 0 mm - 0 W/m² -
1788313020 31.67° C 52% 1015.3 hPa 0 mm - 0 W/m² -
1788312716 31.67° C 52% 1015 hPa 0 mm - 0 W/m² -
1788312412 31.67° C 51% 1015.3 hPa 0 mm - 0 W/m² -
1788312108 32.22° C 51% 1015.3 hPa 0 mm - 0 W/m² -
1788311803 32.22° C 50% 1015.1 hPa 0 mm - 0 W/m² -
1788311502 32.22° C 50% 1015.2 hPa 0 mm - 0 W/m² -
1788311202 32.22° C 49% 1015 hPa 0 mm - 0 W/m² -
1788310898 32.78° C 49% 1014.8 hPa 0 mm - 0 W/m² -
1788310596 32.78° C 48% 1014.9 hPa 0 mm - 1 W/m² -
1788310292 33.33° C 47% 1015 hPa 0 mm - 2 W/m² -
1788309991 33.33° C 47% 1014.8 hPa 0 mm - 4 W/m² -
1788309686 33.89° C 46% 1014.6 hPa 0 mm - 6 W/m² -
1788309382 33.89° C 45% 1014.7 hPa 0 mm - 11 W/m² -
1788309077 34.44° C 44% 1014.7 hPa 0 mm - 14 W/m² -
1788308772 35° C 43% 1015 hPa 0 mm - 19 W/m² -
1788308468 35° C 42% 1014.8 hPa 0 mm - 23 W/m² -
1788308162 35.56° C 42% 1014.8 hPa 0 mm - 28 W/m² -
1788307857 35.56° C 41% 1014.7 hPa 0 mm - 33 W/m² -
1788307552 35.56° C 41% 1014.6 hPa 0 mm - 38 W/m² -

* Rain latest hour (hover to see other rain measurements)
** Current wind speed in m/s (hover to see current wind gust speed)